Flag for Germany Weather past 2 weeks in Hamburg, Hamburg, Germany

Now
79 °F

Thundershowers. Partly sunny.


Feels Like: 81 °F
Forecast: 67 / 89 °F
Wind: 10 mph from Northwest

Location: Hamburg-Fuhlsbuettel

Current Time: Jul 4, 2015 at 9:38:05 PM

Latest Report: Jul 4, 2015 at 9:20 PM


Visibility: N/A

Pressure: 30.09 "Hg

Humidity: 70%

Dew point: 68 °F

Location of HamburgLocation

Historic Weather in Hamburg — Graph

°F

Hamburg temperature yesterday

Maximum temperature yesterday: 86 °F (at 3:20 PM)
Minimum temperature yesterday: 66 °F (at 5:20 AM)
Average temperature yesterday: 77 °F

Past Weeks' High & Low Weather Summary

 TemperatureHumidityPressure
High97 °F (Jul 4, 3:20 PM)100% (Jun 20, 6:50 AM)30.27 "Hg (Jun 20, 6:50 AM)
Low48 °F (Jun 21, 3:50 AM)23% (Jul 4, 3:50 PM)29.62 "Hg (Jun 23, 2:50 AM)
Average64 °F70%30.05 "Hg
* Reported Jun 19 8:20 PM — Jul 4 8:20 PM, Hamburg, Weather by CustomWeather, © 2015

Note: Actual official high and low records may vary slightly from our data, if they occured in-between our weather recording intervals... More about our weather records

Advertising

Hamburg weather history for previous 24 hours

 ConditionsComfort  
Time TempWeatherWind HumidityBarometerVisibility
8:20 PM
Sat, Jul 4
84 °FThundershowers. Partly sunny.6 mph58%30.01 "HgN/A
7:50 PM86 °FPartly sunny.7 mph55%30.01 "HgN/A
7:20 PM88 °FScattered clouds.9 mph55%30.01 "HgN/A
6:50 PM91 °FScattered clouds.9 mph46%30.01 "HgN/A
6:20 PM95 °FPassing clouds.9 mph34%30.01 "HgN/A
5:50 PM97 °FPassing clouds.6 mph23%30.01 "HgN/A
5:20 PM97 °FPassing clouds.5 mph25%30.04 "HgN/A
4:50 PM97 °FSunny.3 mph23%30.04 "Hg10 mi
4:20 PM97 °FPassing clouds.7 mph25%30.04 "HgN/A
3:50 PM97 °FPassing clouds.5 mph23%30.04 "HgN/A
3:20 PM97 °FPassing clouds.3 mph28%30.04 "HgN/A
2:50 PM95 °FPassing clouds.7 mph32%30.04 "HgN/A
2:20 PM95 °FSunny.5 mph32%30.07 "Hg10 mi
1:50 PM93 °FPassing clouds.6 mph32%30.07 "HgN/A
1:20 PM91 °FPassing clouds.6 mph36%30.07 "HgN/A
12:50 PM90 °FPassing clouds.7 mph41%30.07 "HgN/A
12:20 PM88 °FPassing clouds.8 mph43%30.07 "HgN/A
11:50 AM88 °FPassing clouds.9 mph46%30.09 "HgN/A
11:20 AM86 °FPassing clouds.7 mph49%30.09 "HgN/A
10:50 AM84 °FPassing clouds.8 mph48%30.09 "HgN/A
10:20 AM81 °FSunny.6 mph58%30.09 "Hg10 mi
9:50 AM79 °FPassing clouds.7 mph61%30.12 "HgN/A
9:20 AM77 °FSunny.7 mph65%30.12 "Hg10 mi
8:50 AM75 °FSunny.7 mph65%30.12 "Hg10 mi
8:20 AM75 °FSunny.8 mph65%30.12 "Hg10 mi
7:50 AM73 °FSunny.7 mph69%30.12 "Hg10 mi
7:20 AM70 °FPassing clouds.6 mph78%30.12 "HgN/A
6:50 AM70 °FScattered clouds.5 mph73%30.15 "HgN/A
6:20 AM68 °FScattered clouds.6 mph78%30.15 "HgN/A
5:50 AM68 °FPassing clouds.5 mph78%30.15 "HgN/A
5:20 AM66 °FPassing clouds.3 mph83%30.15 "HgN/A
4:50 AM66 °FClear.7 mph83%30.15 "Hg10 mi
4:20 AM66 °FFog.5 mph88%30.15 "HgN/A
3:50 AM64 °FFog.2 mph94%30.18 "HgN/A
3:20 AM64 °FClear.2 mph94%30.18 "Hg10 mi
2:50 AM66 °FClear.3 mph88%30.18 "Hg10 mi
2:20 AM68 °FClear.1 mph83%30.18 "Hg10 mi
1:50 AM68 °FClear.2 mph83%30.21 "Hg10 mi
1:20 AM68 °FPassing clouds.3 mph83%30.21 "HgN/A
12:50 AM70 °FClear.2 mph78%30.21 "Hg10 mi
12:20 AM72 °FPassing clouds.3 mph73%30.21 "HgN/A
11:50 PM
Fri, Jul 3
72 °FClear.5 mph73%30.21 "Hg10 mi
11:20 PM72 °FClear.5 mph73%30.21 "Hg10 mi
10:50 PM73 °FSunny.2 mph69%30.21 "Hg10 mi
10:20 PM75 °FSunny.3 mph69%30.21 "Hg10 mi
9:50 PM77 °FPassing clouds.5 mph65%30.21 "HgN/A
9:20 PM79 °FSunny.7 mph61%30.21 "Hg10 mi
Weather by CustomWeather, © 2015

See weather overviewHow to use our weather pages